Location: Biltmore Gardens
(41.6070°N, 83.4666°W)
Time: 14:57:16
(UTC+00:00)

Cosmos 2228 Rocket - Pass Details

Date: 14 July 2020
Orbit: 617 x 653 km, 82.5° (Epoch: 12 August)

Event Time Altitude Azimuth Distance (km) Brightness Sun altitude
Rises 05:05:15 0° 350° (N) 2,974 7.9 -26.3°
Reaches altitude 10° 05:07:31 10° 348° (NNW) 2,055 6.7 -26.3°
Enters shadow 05:11:33 65° 315° (NW) 711 3.4 -26.5°
